User: anonymous
Location: Ottawa
(45.4170°N, 75.7000°W)
Time: 05:41:40
(UTC-04:00)
Language:

Aureole 3 Rocket - Orbit

View from above orbital plane
View from above orbital plane
View from above satellite
View from above satellite

Ground track
Ground track

The orbit data is extracted from the following two-line orbital elements,

1 12849U 81094B   14260.82062551  .00000846  00000-0  79379-4 0  9827
2 12849 082.4948 215.8785 0910395 230.0482 121.7217 13.48271431606594
Epoch (UTC): 17 September 2014 19:41:42
Eccentricity: 0.0910395
inclination: 82.4948°
perigee height: 400 km
apogee height: 1757 km
right ascension of ascending node: 215.8785°
argument of perigee: 230.0482°
revolutions per day: 13.48271431
mean anomaly at epoch: 121.7217°
orbit number at epoch: 60659

The dashed part of the orbit path shows where the satellite is in the earth's shadow,  

DLR